Location: 5810 Zion Rd, Cleves, OH 45002, USA
(39.1922°N, 84.7113°W)
Time: 06:14:51
(UTC-05:00)

Vanguard 3 - Pass Details

Date: 19 December 2019
Orbit: 507 x 3263 km, 33.4° (Epoch: 22 January)

Event Time Altitude Azimuth Distance (km) Brightness Sun altitude
Rises 11:39:04 0° 272° (W) 4,322 10.7 26.0°
Reaches altitude 10° 11:41:54 10° 262° (W) 3,680 10.5 26.1°
Maximum altitude 11:50:30 32° 204° (SSW) 3,159 11.3 26.5°
Drops below altitude 10° 12:03:41 10° 149° (SSE) 5,658 12.8 26.9°
Sets 12:09:28 0° 142° (SE) 6,972 12.8 27.1°
